Boscobel, WI

7:09 PM CDT on April 19, 2018 (GMT -0500)
Boscobel

Weather History for KOVS - March, 2012

Change the Weather History Date:

Sunday, March 18, 2012

  Actual Average (KPDC) Record (KPDC)
Temperature  
Mean Temperature 70 °F -  
Max Temperature 82 °F 47 °F 80 °F (2012)
Min Temperature 57 °F 26 °F 0 °F (1959)
Cooling Degree Days 4    
Growing Degree Days 20 (Base 50)    
Moisture  
Dew Point 55 °F    
Average Humidity 59    
Maximum Humidity 78    
Minimum Humidity 42    
Precipitation  
Precipitation 0.00 in - - ()
Sea Level Pressure  
Sea Level Pressure 29.89 in    
Wind  
Wind Speed 6 mph (South)    
Max Wind Speed 15 mph    
Max Gust Speed 28 mph    
Visibility 10 miles    
Events Rain    
Averages and records for this station are not official NWS values.
T = Trace of Precipitation, MM = Missing Value Source: NWS Daily Summary

Daily Weather History Graph

Daily Weather History Graph

Search for Another Location

Airport or City:

Astronomy

Mar. 18, 2012 Rise Set
Actual Time 7:08 AM CDT 7:13 PM CDT
Civil Twilight 6:40 AM CDT 7:41 PM CDT
Nautical Twilight 6:07 AM CDT 8:14 PM CDT
Astronomical Twilight 5:33 AM CDT 8:48 PM CDT
Moon 4:53 AM CDT (3/18) 3:35 PM CDT (3/18)
Length of Visible Light 13h 01m
Length of Day
12h 04m
Waning Crescent, 15% of the Moon is Illuminated
Mar 18
Waning Crescent
Mar 22
New
Mar 30
First Quarter
Apr 6
Full
Apr 13
Last Quarter

Hourly Weather History & Observations

Time (CDT) Temp. Heat Index Dew Point Humidity Pressure Visibility Wind Dir Wind Speed Gust Speed Precip Events Conditions
12:53 AM 66.0 °F - 55.0 °F 68% 29.92 in 10.0 mi Variable 6.9 mph - N/A   Clear
1:53 AM 64.0 °F - 53.1 °F 67% 29.92 in 10.0 mi SSW 3.5 mph - N/A   Partly Cloudy
2:53 AM 63.0 °F - 51.1 °F 65% 29.92 in 10.0 mi WSW 4.6 mph - N/A   Clear
3:53 AM 60.1 °F - 50.0 °F 69% 29.91 in 10.0 mi SSW 3.5 mph - N/A   Clear
4:53 AM 57.9 °F - 50.0 °F 75% 29.92 in 10.0 mi Calm Calm - N/A   Clear
5:53 AM 59.0 °F - 51.1 °F 75% 29.93 in 10.0 mi SSW 3.5 mph - N/A   Clear
6:53 AM 59.0 °F - 51.1 °F 75% 29.93 in 10.0 mi Calm Calm - N/A   Clear
7:53 AM 59.0 °F - 52.0 °F 78% 29.94 in 10.0 mi Calm Calm - N/A   Clear
8:53 AM 64.0 °F - 54.0 °F 70% 29.94 in 10.0 mi SSW 3.5 mph - N/A   Mostly Cloudy
9:53 AM 68.0 °F - 55.9 °F 65% 29.95 in 10.0 mi SW 6.9 mph - N/A   Overcast
10:53 AM 70.0 °F - 55.9 °F 61% 29.94 in 10.0 mi South 9.2 mph 17.3 mph N/A   Overcast
11:53 AM 73.9 °F - 57.0 °F 55% 29.93 in 10.0 mi South 15.0 mph 20.7 mph N/A   Overcast
12:53 PM 78.1 °F - 57.9 °F 50% 29.91 in 10.0 mi SSW 13.8 mph 21.9 mph N/A   Partly Cloudy
1:53 PM 80.1 °F 80.6 °F 57.9 °F 47% 29.88 in 10.0 mi South 12.7 mph 26.5 mph N/A   Clear
2:53 PM 80.1 °F 80.6 °F 57.9 °F 47% 29.86 in 10.0 mi South 10.4 mph 27.6 mph N/A   Scattered Clouds
3:53 PM 82.0 °F 81.7 °F 57.0 °F 42% 29.84 in 10.0 mi South 10.4 mph 21.9 mph N/A   Mostly Cloudy
4:53 PM 81.0 °F 81.0 °F 57.0 °F 44% 29.83 in 10.0 mi South 9.2 mph 17.3 mph N/A   Mostly Cloudy
5:53 PM 81.0 °F 81.0 °F 57.0 °F 44% 29.83 in 10.0 mi South 10.4 mph - N/A   Mostly Cloudy
6:53 PM 79.0 °F - 57.0 °F 47% 29.83 in 10.0 mi South 5.8 mph - N/A   Partly Cloudy
7:53 PM 77.0 °F - 57.0 °F 50% 29.83 in 10.0 mi South 5.8 mph - 0.00 in Rain Light Rain
8:53 PM 75.0 °F - 57.0 °F 53% 29.84 in 10.0 mi South 5.8 mph - 0.00 in Rain Light Rain
9:53 PM 73.0 °F - 57.0 °F 57% 29.85 in 10.0 mi South 6.9 mph - 0.00 in   Clear
10:53 PM 72.0 °F - 57.0 °F 59% 29.86 in 10.0 mi South 8.1 mph - N/A   Mostly Cloudy